TimeEDT,TemperatureF,Dew PointF,Humidity,Sea Level PressureIn,VisibilityMPH,Wind Direction,Wind SpeedMPH,Gust SpeedMPH,PrecipitationIn,Events,Conditions,WindDirDegrees,DateUTC
12:53 AM,78.1,70.0,76,30.07,10.0,Calm,Calm,-,N/A,,Overcast,0,2013-10-03 04:53:00
1:53 AM,77.0,70.0,79,30.05,10.0,ENE,4.6,-,N/A,,Overcast,70,2013-10-03 05:53:00
2:53 AM,75.9,70.0,82,30.04,10.0,ENE,4.6,-,N/A,,Overcast,70,2013-10-03 06:53:00
3:53 AM,75.0,70.0,84,30.01,10.0,ENE,5.8,-,N/A,,Overcast,60,2013-10-03 07:53:00
4:53 AM,75.0,70.0,84,29.99,10.0,NE,5.8,-,N/A,,Mostly Cloudy,50,2013-10-03 08:53:00
5:53 AM,73.9,70.0,87,30.00,10.0,East,3.5,-,N/A,,Scattered Clouds,80,2013-10-03 09:53:00
6:53 AM,73.9,69.1,85,30.02,10.0,Calm,Calm,-,N/A,,Scattered Clouds,0,2013-10-03 10:53:00
7:53 AM,73.9,68.0,82,30.03,10.0,Calm,Calm,-,N/A,,Scattered Clouds,0,2013-10-03 11:53:00
8:53 AM,77.0,68.0,74,30.05,10.0,Calm,Calm,-,N/A,,Scattered Clouds,0,2013-10-03 12:53:00
9:53 AM,80.1,68.0,67,30.08,10.0,East,5.8,-,N/A,,Scattered Clouds,100,2013-10-03 13:53:00
10:53 AM,84.0,68.0,58,30.09,10.0,East,4.6,-,N/A,,Scattered Clouds,80,2013-10-03 14:53:00
11:53 AM,84.9,68.0,57,30.08,10.0,Variable,5.8,-,N/A,,Scattered Clouds,0,2013-10-03 15:53:00
12:53 PM,87.1,66.9,51,30.06,10.0,Variable,5.8,-,N/A,,Scattered Clouds,0,2013-10-03 16:53:00
1:53 PM,88.0,66.0,48,30.05,10.0,SSE,8.1,-,N/A,,Mostly Cloudy,150,2013-10-03 17:53:00
2:53 PM,90.0,66.9,46,30.02,10.0,Variable,5.8,-,N/A,,Mostly Cloudy,0,2013-10-03 18:53:00
3:53 PM,89.1,66.9,48,30.01,10.0,Calm,Calm,-,N/A,,Mostly Cloudy,0,2013-10-03 19:53:00
4:53 PM,89.1,66.9,48,30.00,10.0,ESE,3.5,-,N/A,,Mostly Cloudy,120,2013-10-03 20:53:00
5:53 PM,88.0,66.0,48,30.00,10.0,East,5.8,-,N/A,,Mostly Cloudy,80,2013-10-03 21:53:00
6:53 PM,87.1,64.9,48,30.01,10.0,Calm,Calm,-,N/A,,Overcast,0,2013-10-03 22:53:00
7:53 PM,82.0,70.0,67,30.02,10.0,NNW,4.6,-,N/A,,Overcast,330,2013-10-03 23:53:00
8:53 PM,81.0,72.0,74,30.03,10.0,North,6.9,-,N/A,,Overcast,350,2013-10-04 00:53:00
9:53 PM,80.1,73.0,79,30.04,10.0,North,5.8,-,N/A,,Overcast,10,2013-10-04 01:53:00
10:53 PM,82.0,70.0,67,30.06,10.0,NE,4.6,-,N/A,,Overcast,50,2013-10-04 02:53:00